Location: ????????
(55.4000°N, 39.1167°E)
Time: 03:05:27
(UTC+00:00)

Geosat FO - Pass Details

Date: 19 May 2025
Orbit: 387 x 492 km, 108.0° (Epoch: 14 June)

Event Time Altitude Azimuth Distance (km) Brightness Sun altitude
Exits shadow 21:23:30 34° 175° (S) 668 4.7 -14.6°
Maximum altitude 21:24:33 58° 239° (WSW) 463 4.2 -14.6°
Drops below altitude 10° 21:27:31 10° 320° (NW) 1,432 7.7 -14.6°
Sets 21:29:29 0° 324° (NW) 2,292 8.9 -14.6°
